Weather History for Burnet, TX

Change the Weather History Date:

Sunday, April 29, 2012

  Actual Average Record
Temperature  
Mean Temperature 78 °F -  
Max Temperature 84 °F 79 °F 95 °F (2002)
Min Temperature 71 °F 58 °F 46 °F (1998)
Cooling Degree Days 12    
Growing Degree Days 28 (Base 50)    
Moisture  
Dew Point 62 °F    
Average Humidity 64    
Maximum Humidity 81    
Minimum Humidity 40    
Precipitation  
Precipitation 0.00 in - - ()
Sea Level Pressure  
Sea Level Pressure 29.89 in    
Wind  
Wind Speed 11 mph (SSE)    
Max Wind Speed 16 mph    
Max Gust Speed 30 mph    
Visibility 9 miles    
Events      
Averages and records for this station are not official NWS values.
T = Trace of Precipitation, MM = Missing Value Source: NWS Daily Summary

Daily Weather History Graph

Daily Weather History Graph

Search for Another Location

Airport:

Trip Planner

Search our weather history database for the weather conditions in past years. The results will help you decide how hot, cold, wet, or windy it might be!

Date:

Astronomy

Apr. 29, 2012 Rise Set
Actual Time 6:50 AM CDT 8:10 PM CDT
Civil Twilight 6:24 AM CDT 8:36 PM CDT
Nautical Twilight 5:54 AM CDT 9:06 PM CDT
Astronomical Twilight 5:22 AM CDT 9:38 PM CDT
Moon 1:32 PM CDT (4/29) 2:11 AM CDT (4/29)
Length of Visible Light 14h 11m
Length of Day
13h 20m
First Quarter, 53% of the Moon is Illuminated
Apr 29
First Quarter
May 5
Full
May 12
Last Quarter
May 20
New
May 28
First Quarter

Hourly Weather History & Observations

Time (CDT) Temp. Heat Index Dew Point Humidity Pressure Visibility Wind Dir Wind Speed Gust Speed Precip Events Conditions
12:15 AM 72.0 °F - 64.0 °F 76% 29.85 in 9.0 mi SSE 15.0 mph 29.9 mph N/A   Mostly Cloudy
12:53 AM 72.0 °F - 64.0 °F 76% 29.80 in 9.0 mi SSE 15.0 mph 24.2 mph N/A   Mostly Cloudy
1:53 AM 73.0 °F - 64.9 °F 76% 29.84 in 8.0 mi SSE 8.1 mph 21.9 mph N/A   Overcast
2:53 AM 73.0 °F - 64.0 °F 73% 29.83 in 8.0 mi SSE 8.1 mph 18.4 mph N/A   Overcast
3:05 AM 73.0 °F - 64.0 °F 73% 29.88 in 8.0 mi SSE 9.2 mph 18.4 mph N/A   Mostly Cloudy
3:53 AM 72.0 °F - 64.0 °F 76% 29.82 in 7.0 mi SSE 8.1 mph 17.3 mph N/A   Scattered Clouds
4:35 AM 71.1 °F - 64.9 °F 81% 29.89 in 7.0 mi SSE 6.9 mph - N/A   Mostly Cloudy
4:53 AM 71.1 °F - 64.9 °F 81% 29.83 in 7.0 mi SSE 8.1 mph - N/A   Overcast
5:53 AM 71.1 °F - 64.9 °F 81% 29.84 in 7.0 mi SSE 9.2 mph - N/A   Overcast
7:40 AM 71.1 °F - 64.9 °F 81% 29.92 in 7.0 mi SSE 10.4 mph 20.7 mph N/A   Scattered Clouds
7:51 AM 71.6 °F - 64.4 °F 78% 29.92 in 7.0 mi SSE 13.8 mph 20.7 mph N/A   Mostly Cloudy
7:53 AM 71.1 °F - 64.0 °F 78% 29.87 in 7.0 mi South 12.7 mph 20.7 mph N/A   Mostly Cloudy
8:53 AM 73.0 °F - 64.0 °F 73% 29.90 in 8.0 mi South 9.2 mph 18.4 mph N/A   Mostly Cloudy
9:53 AM 73.9 °F - 63.0 °F 68% 29.92 in 9.0 mi South 11.5 mph 21.9 mph N/A   Overcast
10:25 AM 75.9 °F - 63.0 °F 64% 29.98 in 9.0 mi SSE 11.5 mph 19.6 mph N/A   Scattered Clouds
10:53 AM 78.1 °F - 63.0 °F 60% 29.93 in 10.0 mi South 11.5 mph 20.7 mph N/A   Mostly Cloudy
11:11 AM 78.1 °F - 63.0 °F 60% 29.98 in 10.0 mi SSE 13.8 mph 21.9 mph N/A   Mostly Cloudy
12:53 PM 80.1 °F 81.2 °F 62.1 °F 54% 29.92 in 10.0 mi SSE 9.2 mph 24.2 mph N/A   Mostly Cloudy
1:53 PM 82.0 °F 82.4 °F 60.1 °F 47% 29.91 in 10.0 mi SSE 10.4 mph 18.4 mph N/A   Mostly Cloudy
2:53 PM 84.0 °F 83.5 °F 57.9 °F 41% 29.89 in 10.0 mi SSE 13.8 mph 20.7 mph N/A   Scattered Clouds
3:53 PM 82.9 °F 82.6 °F 57.9 °F 42% 29.88 in 10.0 mi SE 13.8 mph 21.9 mph N/A   Mostly Cloudy
4:53 PM 84.0 °F 83.3 °F 57.0 °F 40% 29.87 in 10.0 mi SE 13.8 mph 24.2 mph N/A   Partly Cloudy
5:53 PM 84.0 °F 83.3 °F 57.0 °F 40% 29.87 in 10.0 mi SE 16.1 mph 23.0 mph N/A   Mostly Cloudy
6:53 PM 82.0 °F 81.7 °F 57.0 °F 42% 29.87 in 10.0 mi SSE 12.7 mph 20.7 mph N/A   Partly Cloudy
7:53 PM 80.1 °F 80.6 °F 57.9 °F 47% 29.89 in 10.0 mi SSE 13.8 mph 23.0 mph N/A   Clear
8:53 PM 77.0 °F - 59.0 °F 54% 29.92 in 10.0 mi SE 5.8 mph - N/A   Clear
9:53 PM 77.0 °F - 61.0 °F 58% 29.92 in 10.0 mi SE 9.2 mph 19.6 mph N/A   Clear
10:53 PM 75.0 °F - 63.0 °F 66% 29.94 in 10.0 mi SE 8.1 mph 19.6 mph N/A   Clear
11:53 PM 73.9 °F - 64.9 °F 73% 29.93 in 10.0 mi SE 11.5 mph 17.3 mph N/A   Clear